STARLINK-5772 (56024 NORAD) Tracking and Keplerian Element Data

This shows tracking and keplerian element data for the satellite.

Feedback or suggestion? Click here.




ElementValue
Catalog56024
NameSTARLINK-5772
Epoch Orbit718
Epoch Day127.08334491
Epoch Year2023
RAAN292.6869
Inclination42.9994
Eccentricity0.0001567
Argument of Perigee275.033
Mean Anonmoly61.235
Mean Motion15.5484807
Decay Rate-0.0096703
L11 56024U 23042AQ 23127.08334491 -.00967030 00000+0 -15407-1 0 9999
L22 56024 42.9994 292.6869 0001567 275.0330 61.2350 15.54848070 7182



Live tracking and technical data element details for STARLINK-5772 (NORAD 56024). STARLINK-5772 can be tracked NOW for your location showing map with azimuth and elevation plus other details from your city location.







IsCatalogInMostPopularTable: catalog: 56024, numindb: 1
Update: records affected: 1



GetName: 56024 STARLINK-5772

Hit Count: updated at: Sat, 03 Jun 2023 17:18:46 GMT